Time,TemperatureF,DewpointF,PressureIn,WindDirection,WindDirectionDegrees,WindSpeedMPH,WindSpeedGustMPH,Humidity,HourlyPrecipIn,Conditions,Clouds,dailyrainin,SoftwareType,DateUTC
2013-06-05 00:02:00,54.9,50.7,30.03,WSW,249,5.0,13.0,86,0.00,,,0.00,meteohub,2013-06-05 07:02:00,
2013-06-05 00:07:00,54.9,50.7,30.03,West,271,10.0,13.0,86,0.00,,,0.00,meteohub,2013-06-05 07:07:00,
2013-06-05 00:12:00,54.9,50.7,30.03,West,260,9.0,13.0,86,0.00,,,0.00,meteohub,2013-06-05 07:12:00,
2013-06-05 00:17:00,54.7,50.5,30.03,WSW,245,8.0,13.0,86,0.00,,,0.00,meteohub,2013-06-05 07:17:00,
2013-06-05 00:22:00,54.7,50.5,30.03,WSW,238,7.0,13.0,86,0.00,,,0.00,meteohub,2013-06-05 07:22:00,
2013-06-05 00:27:00,54.7,50.5,30.03,SW,235,8.0,13.0,86,0.00,,,0.00,meteohub,2013-06-05 07:27:00,
2013-06-05 00:32:00,54.5,50.4,30.03,WSW,249,6.0,13.0,86,0.00,,,0.00,meteohub,2013-06-05 07:32:00,
2013-06-05 00:37:00,54.5,50.4,30.03,WSW,244,7.0,13.0,86,0.00,,,0.00,meteohub,2013-06-05 07:37:00,
2013-06-05 00:43:00,54.5,50.4,30.03,WSW,243,8.0,12.0,86,0.00,,,0.00,meteohub,2013-06-05 07:43:00,
2013-06-05 00:48:00,54.5,50.4,30.03,SW,233,8.0,11.0,86,0.00,,,0.00,meteohub,2013-06-05 07:48:00,
2013-06-05 00:53:00,54.5,50.4,30.03,WSW,241,6.0,12.0,86,0.00,,,0.00,meteohub,2013-06-05 07:53:00,
2013-06-05 00:58:00,54.3,50.2,30.03,WSW,258,8.0,12.0,86,0.00,,,0.00,meteohub,2013-06-05 07:58:00,
2013-06-05 01:03:00,54.3,50.2,30.03,WSW,245,11.0,13.0,86,0.00,,,0.00,meteohub,2013-06-05 08:03:00,
2013-06-05 01:08:00,54.3,50.2,30.03,West,277,10.0,13.0,86,0.00,,,0.00,meteohub,2013-06-05 08:08:00,
2013-06-05 01:13:00,54.1,50.0,30.03,WSW,246,7.0,13.0,86,0.00,,,0.00,meteohub,2013-06-05 08:13:00,
2013-06-05 01:18:00,54.1,50.0,30.03,WSW,245,5.0,14.0,86,0.00,,,0.00,meteohub,2013-06-05 08:18:00,
2013-06-05 01:24:00,54.1,50.0,30.02,WSW,245,11.0,14.0,86,0.00,,,0.00,meteohub,2013-06-05 08:24:00,
2013-06-05 01:29:00,54.0,49.8,30.02,WSW,237,13.0,15.0,86,0.00,,,0.00,meteohub,2013-06-05 08:29:00,
2013-06-05 01:34:00,53.8,50.0,30.02,WSW,237,7.0,15.0,87,0.00,,,0.00,meteohub,2013-06-05 08:34:00,
2013-06-05 01:39:00,53.8,50.0,30.02,SW,214,8.0,15.0,87,0.00,,,0.00,meteohub,2013-06-05 08:39:00,
2013-06-05 01:44:00,54.0,50.2,30.02,WSW,242,10.0,14.0,87,0.00,,,0.00,meteohub,2013-06-05 08:44:00,
2013-06-05 01:49:00,54.0,50.2,30.02,WSW,237,5.0,13.0,87,0.00,,,0.00,meteohub,2013-06-05 08:49:00,
2013-06-05 01:54:00,54.0,50.2,30.02,WSW,244,7.0,13.0,87,0.00,,,0.00,meteohub,2013-06-05 08:54:00,
2013-06-05 02:00:00,54.0,50.2,30.02,West,263,12.0,12.0,87,0.00,,,0.00,meteohub,2013-06-05 09:00:00,
2013-06-05 02:05:00,54.0,50.2,30.02,SW,223,8.0,13.0,87,0.00,,,0.00,meteohub,2013-06-05 09:05:00,
2013-06-05 02:10:00,53.8,49.6,30.03,WSW,249,8.0,13.0,86,0.00,,,0.00,meteohub,2013-06-05 09:10:00,
2013-06-05 02:15:00,53.8,49.6,30.03,WSW,251,10.0,13.0,86,0.00,,,0.00,meteohub,2013-06-05 09:15:00,
2013-06-05 02:21:00,53.8,49.6,30.02,SW,236,10.0,15.0,86,0.00,,,0.00,meteohub,2013-06-05 09:21:00,
2013-06-05 02:26:00,53.8,49.6,30.02,WSW,251,8.0,15.0,86,0.00,,,0.00,meteohub,2013-06-05 09:26:00,
2013-06-05 02:31:00,53.8,49.6,30.02,SW,226,8.0,12.0,86,0.00,,,0.00,meteohub,2013-06-05 09:31:00,
2013-06-05 02:36:00,53.8,49.6,30.02,SW,226,7.0,12.0,86,0.00,,,0.00,meteohub,2013-06-05 09:36:00,
2013-06-05 02:41:00,53.8,49.6,30.02,WSW,249,12.0,13.0,86,0.00,,,0.00,meteohub,2013-06-05 09:41:00,
2013-06-05 02:46:00,53.6,49.5,30.02,SW,226,10.0,13.0,86,0.00,,,0.00,meteohub,2013-06-05 09:46:00,
2013-06-05 02:51:00,53.6,49.5,30.02,SW,233,9.0,14.0,86,0.00,,,0.00,meteohub,2013-06-05 09:51:00,
2013-06-05 02:56:00,53.8,49.6,30.02,WSW,238,13.0,14.0,86,0.00,,,0.00,meteohub,2013-06-05 09:56:00,
2013-06-05 03:01:00,53.6,49.5,30.02,SW,230,5.0,14.0,86,0.00,,,0.00,meteohub,2013-06-05 10:01:00,
2013-06-05 03:07:00,53.4,49.3,30.02,WSW,239,5.0,14.0,86,0.00,,,0.00,meteohub,2013-06-05 10:07:00,
2013-06-05 03:12:00,53.4,49.3,30.02,SW,231,10.0,14.0,86,0.00,,,0.00,meteohub,2013-06-05 10:12:00,
2013-06-05 03:17:00,53.4,49.3,30.02,WSW,237,7.0,13.0,86,0.00,,,0.00,meteohub,2013-06-05 10:17:00,
2013-06-05 03:22:00,53.4,49.3,30.02,SW,227,10.0,13.0,86,0.00,,,0.00,meteohub,2013-06-05 10:22:00,
2013-06-05 03:27:00,53.4,49.3,30.02,SW,219,6.0,13.0,86,0.00,,,0.00,meteohub,2013-06-05 10:27:00,
2013-06-05 03:33:00,53.4,49.3,30.02,WSW,239,6.0,12.0,86,0.00,,,0.00,meteohub,2013-06-05 10:33:00,
2013-06-05 03:38:00,53.2,49.5,30.02,SW,234,7.0,13.0,87,0.00,,,0.00,meteohub,2013-06-05 10:38:00,
2013-06-05 03:43:00,53.2,49.1,30.02,WSW,243,7.0,13.0,86,0.00,,,0.00,meteohub,2013-06-05 10:43:00,
2013-06-05 03:48:00,53.2,49.1,30.02,SW,215,5.0,13.0,86,0.00,,,0.00,meteohub,2013-06-05 10:48:00,
2013-06-05 03:53:00,53.2,49.5,30.02,SW,220,7.0,12.0,87,0.00,,,0.00,meteohub,2013-06-05 10:53:00,
2013-06-05 03:58:00,53.4,49.6,30.02,SW,215,5.0,12.0,87,0.00,,,0.00,meteohub,2013-06-05 10:58:00,
2013-06-05 04:03:00,53.4,49.3,30.02,SW,215,6.0,11.0,86,0.00,,,0.00,meteohub,2013-06-05 11:03:00,
2013-06-05 04:08:00,53.4,49.6,30.02,SW,227,5.0,12.0,87,0.00,,,0.00,meteohub,2013-06-05 11:08:00,
2013-06-05 04:14:00,53.4,49.3,30.02,SSW,204,7.0,12.0,86,0.00,,,0.00,meteohub,2013-06-05 11:14:00,
2013-06-05 04:19:00,53.4,49.3,30.02,SSW,205,2.0,12.0,86,0.00,,,0.00,meteohub,2013-06-05 11:19:00,
2013-06-05 04:24:00,53.4,49.6,30.02,SW,229,6.0,9.0,87,0.00,,,0.00,meteohub,2013-06-05 11:24:00,
2013-06-05 04:29:00,53.4,49.6,30.02,SW,215,5.0,9.0,87,0.00,,,0.00,meteohub,2013-06-05 11:29:00,
2013-06-05 04:34:00,53.4,49.6,30.02,SSW,206,6.0,9.0,87,0.00,,,0.00,meteohub,2013-06-05 11:34:00,
2013-06-05 04:39:00,53.2,49.5,30.02,SSW,206,4.0,10.0,87,0.00,,,0.00,meteohub,2013-06-05 11:39:00,
2013-06-05 04:44:00,53.2,49.5,30.02,SSW,199,5.0,10.0,87,0.00,,,0.00,meteohub,2013-06-05 11:44:00,
2013-06-05 04:49:00,53.2,49.5,30.02,WSW,237,5.0,10.0,87,0.00,,,0.00,meteohub,2013-06-05 11:49:00,
2013-06-05 04:55:00,53.2,49.5,30.02,SSW,206,6.0,10.0,87,0.00,,,0.00,meteohub,2013-06-05 11:55:00,
2013-06-05 05:00:00,53.2,49.5,30.02,SW,234,9.0,11.0,87,0.00,,,0.00,meteohub,2013-06-05 12:00:00,
2013-06-05 05:05:00,53.1,49.3,30.02,WSW,240,4.0,11.0,87,0.00,,,0.00,meteohub,2013-06-05 12:05:00,
2013-06-05 05:10:00,53.1,48.9,30.02,SW,233,7.0,11.0,86,0.00,,,0.00,meteohub,2013-06-05 12:10:00,
2013-06-05 05:15:00,53.1,49.3,30.02,SW,225,5.0,11.0,87,0.00,,,0.00,meteohub,2013-06-05 12:15:00,
2013-06-05 05:20:00,53.1,49.3,30.02,SW,220,8.0,11.0,87,0.00,,,0.00,meteohub,2013-06-05 12:20:00,
2013-06-05 05:25:00,53.1,49.3,30.02,WSW,237,6.0,9.0,87,0.00,,,0.00,meteohub,2013-06-05 12:25:00,
2013-06-05 05:30:00,53.1,49.3,30.02,SW,235,4.0,9.0,87,0.00,,,0.00,meteohub,2013-06-05 12:30:00,
2013-06-05 05:35:00,53.1,49.3,30.02,SSW,208,9.0,9.0,87,0.00,,,0.00,meteohub,2013-06-05 12:35:00,
2013-06-05 05:40:00,53.1,49.3,30.02,SSW,200,5.0,9.0,87,0.00,,,0.00,meteohub,2013-06-05 12:40:00,
2013-06-05 05:46:00,53.1,49.3,30.02,SW,218,10.0,10.0,87,0.00,,,0.00,meteohub,2013-06-05 12:46:00,
2013-06-05 05:51:00,53.1,49.3,30.03,SSW,211,7.0,12.0,87,0.00,,,0.00,meteohub,2013-06-05 12:51:00,
2013-06-05 05:56:00,53.1,49.6,30.03,SW,228,3.0,12.0,88,0.00,,,0.00,meteohub,2013-06-05 12:56:00,
2013-06-05 06:01:00,53.1,49.3,30.03,SSW,212,8.0,10.0,87,0.00,,,0.00,meteohub,2013-06-05 13:01:00,
2013-06-05 06:07:00,52.9,49.5,30.03,SSW,197,5.0,10.0,88,0.00,,,0.00,meteohub,2013-06-05 13:07:00,
2013-06-05 06:12:00,52.7,49.3,30.03,SSW,210,6.0,10.0,88,0.00,,,0.00,meteohub,2013-06-05 13:12:00,
2013-06-05 06:17:00,52.5,49.1,30.03,SSW,204,8.0,10.0,88,0.00,,,0.00,meteohub,2013-06-05 13:17:00,
2013-06-05 06:22:00,52.7,49.3,30.03,SSW,199,7.0,10.0,88,0.00,,,0.00,meteohub,2013-06-05 13:22:00,
2013-06-05 06:27:00,52.9,49.5,30.04,SW,218,5.0,10.0,88,0.00,,,0.00,meteohub,2013-06-05 13:27:00,
2013-06-05 06:32:00,52.9,49.5,30.04,SW,215,5.0,9.0,88,0.00,,,0.00,meteohub,2013-06-05 13:32:00,
2013-06-05 06:37:00,52.7,48.9,30.03,SW,216,8.0,9.0,87,0.00,,,0.00,meteohub,2013-06-05 13:37:00,
2013-06-05 06:42:00,52.9,49.5,30.04,SSW,208,4.0,9.0,88,0.00,,,0.00,meteohub,2013-06-05 13:42:00,
2013-06-05 06:48:00,52.9,49.5,30.04,SW,229,8.0,11.0,88,0.00,,,0.00,meteohub,2013-06-05 13:48:00,
2013-06-05 06:53:00,52.9,49.1,30.04,WSW,241,8.0,11.0,87,0.00,,,0.00,meteohub,2013-06-05 13:53:00,
2013-06-05 06:58:00,52.9,49.5,30.04,SSW,210,7.0,11.0,88,0.00,,,0.00,meteohub,2013-06-05 13:58:00,
2013-06-05 07:03:00,52.9,49.5,30.04,SW,215,4.0,11.0,88,0.00,,,0.00,meteohub,2013-06-05 14:03:00,
2013-06-05 07:08:00,52.9,49.5,30.04,WSW,237,5.0,11.0,88,0.00,,,0.00,meteohub,2013-06-05 14:08:00,
2013-06-05 07:14:00,52.9,49.5,30.04,SSW,206,7.0,9.0,88,0.00,,,0.00,meteohub,2013-06-05 14:14:00,
2013-06-05 07:19:00,52.9,49.5,30.04,SSW,202,7.0,10.0,88,0.00,,,0.00,meteohub,2013-06-05 14:19:00,
2013-06-05 07:24:00,52.9,49.5,30.04,SW,235,6.0,10.0,88,0.00,,,0.00,meteohub,2013-06-05 14:24:00,
2013-06-05 07:29:00,52.9,49.5,30.04,SSW,209,5.0,10.0,88,0.00,,,0.00,meteohub,2013-06-05 14:29:00,
2013-06-05 07:34:00,52.9,49.5,30.04,SW,223,6.0,9.0,88,0.00,,,0.00,meteohub,2013-06-05 14:34:00,
2013-06-05 07:39:00,53.1,49.6,30.04,WSW,240,6.0,12.0,88,0.00,,,0.00,meteohub,2013-06-05 14:39:00,
2013-06-05 07:45:00,53.2,49.8,30.04,SSW,199,9.0,12.0,88,0.00,,,0.00,meteohub,2013-06-05 14:45:00,
2013-06-05 07:50:00,53.1,49.3,30.05,SW,215,5.0,12.0,87,0.00,,,0.00,meteohub,2013-06-05 14:50:00,
2013-06-05 07:55:00,53.2,49.5,30.05,SSW,208,3.0,12.0,87,0.00,,,0.00,meteohub,2013-06-05 14:55:00,
2013-06-05 08:00:00,53.2,49.5,30.05,SSW,210,7.0,12.0,87,0.00,,,0.00,meteohub,2013-06-05 15:00:00,
2013-06-05 08:05:00,53.2,49.5,30.05,SSW,209,4.0,9.0,87,0.00,,,0.00,meteohub,2013-06-05 15:05:00,
2013-06-05 08:10:00,53.2,49.5,30.05,SSW,207,6.0,9.0,87,0.00,,,0.00,meteohub,2013-06-05 15:10:00,
2013-06-05 08:15:00,53.2,49.5,30.05,SSW,206,7.0,9.0,87,0.00,,,0.00,meteohub,2013-06-05 15:15:00,
2013-06-05 08:20:00,53.2,49.5,30.05,SSW,208,7.0,10.0,87,0.00,,,0.00,meteohub,2013-06-05 15:20:00,
2013-06-05 08:26:00,53.4,49.6,30.05,SSW,192,8.0,10.0,87,0.00,,,0.00,meteohub,2013-06-05 15:26:00,
2013-06-05 08:31:00,53.4,49.6,30.05,SW,233,6.0,11.0,87,0.00,,,0.00,meteohub,2013-06-05 15:31:00,
2013-06-05 08:36:00,53.4,49.3,30.06,SSW,205,6.0,11.0,86,0.00,,,0.00,meteohub,2013-06-05 15:36:00,
2013-06-05 08:41:00,53.6,49.5,30.06,WSW,239,6.0,11.0,86,0.00,,,0.00,meteohub,2013-06-05 15:41:00,
2013-06-05 08:46:00,53.6,49.5,30.06,SW,216,8.0,11.0,86,0.00,,,0.00,meteohub,2013-06-05 15:46:00,
2013-06-05 08:51:00,53.4,49.3,30.06,SW,218,9.0,14.0,86,0.00,,,0.00,meteohub,2013-06-05 15:51:00,
2013-06-05 08:56:00,53.4,49.3,30.05,SW,232,5.0,14.0,86,0.00,,,0.00,meteohub,2013-06-05 15:56:00,
2013-06-05 09:01:00,53.6,49.8,30.05,SSW,210,5.0,14.0,87,0.00,,,0.00,meteohub,2013-06-05 16:01:00,
2013-06-05 09:06:00,53.8,49.6,30.05,WSW,240,9.0,12.0,86,0.00,,,0.00,meteohub,2013-06-05 16:06:00,
2013-06-05 09:11:00,53.6,49.5,30.06,WSW,250,8.0,13.0,86,0.00,,,0.00,meteohub,2013-06-05 16:11:00,
2013-06-05 09:16:00,53.8,49.6,30.06,WSW,237,5.0,13.0,86,0.00,,,0.00,meteohub,2013-06-05 16:16:00,
2013-06-05 09:22:00,54.0,49.8,30.06,SW,235,12.0,13.0,86,0.00,,,0.00,meteohub,2013-06-05 16:22:00,
2013-06-05 09:27:00,54.1,49.8,30.06,SSW,204,7.0,13.0,85,0.00,,,0.00,meteohub,2013-06-05 16:27:00,
2013-06-05 09:32:00,54.1,50.0,30.06,WSW,246,9.0,14.0,86,0.00,,,0.00,meteohub,2013-06-05 16:32:00,
2013-06-05 09:38:00,54.1,49.8,30.06,SW,229,7.0,14.0,85,0.00,,,0.00,meteohub,2013-06-05 16:38:00,
2013-06-05 09:43:00,54.3,50.2,30.06,SW,226,9.0,14.0,86,0.00,,,0.00,meteohub,2013-06-05 16:43:00,
2013-06-05 09:48:00,54.5,50.4,30.05,WSW,252,9.0,13.0,86,0.00,,,0.00,meteohub,2013-06-05 16:48:00,
2013-06-05 09:53:00,54.1,49.8,30.05,WSW,248,9.0,12.0,85,0.00,,,0.00,meteohub,2013-06-05 16:53:00,
2013-06-05 09:58:00,54.7,50.5,30.05,WSW,237,5.0,12.0,86,0.00,,,0.00,meteohub,2013-06-05 16:58:00,
2013-06-05 10:03:00,54.7,50.2,30.05,SW,229,9.0,12.0,85,0.00,,,0.00,meteohub,2013-06-05 17:03:00,
2013-06-05 10:08:00,54.3,49.8,30.05,WSW,252,10.0,14.0,85,0.00,,,0.00,meteohub,2013-06-05 17:08:00,
2013-06-05 10:13:00,54.7,50.2,30.05,WSW,256,7.0,14.0,85,0.00,,,0.00,meteohub,2013-06-05 17:13:00,
2013-06-05 10:18:00,54.5,49.8,30.05,WSW,238,11.0,14.0,84,0.00,,,0.00,meteohub,2013-06-05 17:18:00,
2013-06-05 10:23:00,54.5,50.0,30.05,WSW,247,11.0,14.0,85,0.00,,,0.00,meteohub,2013-06-05 17:23:00,
2013-06-05 10:29:00,54.5,50.0,30.05,WSW,247,8.0,14.0,85,0.00,,,0.00,meteohub,2013-06-05 17:29:00,
2013-06-05 10:34:00,54.9,50.4,30.05,WSW,253,11.0,14.0,85,0.00,,,0.00,meteohub,2013-06-05 17:34:00,
2013-06-05 10:39:00,54.9,50.4,30.05,WSW,242,12.0,14.0,85,0.00,,,0.00,meteohub,2013-06-05 17:39:00,
2013-06-05 10:44:00,55.0,50.5,30.05,WSW,256,10.0,14.0,85,0.00,,,0.00,meteohub,2013-06-05 17:44:00,
2013-06-05 10:49:00,55.0,50.4,30.05,SW,220,8.0,14.0,84,0.00,,,0.00,meteohub,2013-06-05 17:49:00,
2013-06-05 10:54:00,55.4,50.7,30.05,WSW,240,9.0,14.0,84,0.00,,,0.00,meteohub,2013-06-05 17:54:00,
2013-06-05 10:59:00,55.2,50.7,30.05,SW,224,11.0,13.0,85,0.00,,,0.00,meteohub,2013-06-05 17:59:00,
2013-06-05 11:05:00,55.6,50.9,30.05,SSW,207,7.0,12.0,84,0.00,,,0.00,meteohub,2013-06-05 18:05:00,
2013-06-05 11:10:00,55.6,50.9,30.05,SSW,203,8.0,12.0,84,0.00,,,0.00,meteohub,2013-06-05 18:10:00,
2013-06-05 11:15:00,55.9,51.3,30.05,SW,217,8.0,12.0,84,0.00,,,0.00,meteohub,2013-06-05 18:15:00,
2013-06-05 11:20:00,56.1,51.1,30.05,SSW,199,5.0,12.0,83,0.00,,,0.00,meteohub,2013-06-05 18:20:00,
2013-06-05 11:25:00,56.1,51.4,30.05,South,177,7.0,12.0,84,0.00,,,0.00,meteohub,2013-06-05 18:25:00,
2013-06-05 11:30:00,55.9,50.9,30.05,SSW,206,7.0,13.0,83,0.00,,,0.00,meteohub,2013-06-05 18:30:00,
2013-06-05 11:36:00,56.1,51.1,30.05,South,191,5.0,13.0,83,0.00,,,0.00,meteohub,2013-06-05 18:36:00,
2013-06-05 11:41:00,56.5,51.4,30.05,South,182,4.0,13.0,83,0.00,,,0.00,meteohub,2013-06-05 18:41:00,
2013-06-05 11:46:00,56.7,51.6,30.05,SSW,206,7.0,13.0,83,0.00,,,0.00,meteohub,2013-06-05 18:46:00,
2013-06-05 11:51:00,56.7,51.3,30.05,South,174,8.0,13.0,82,0.00,,,0.00,meteohub,2013-06-05 18:51:00,
2013-06-05 11:56:00,56.8,51.8,30.04,South,189,7.0,12.0,83,0.00,,,0.00,meteohub,2013-06-05 18:56:00,
2013-06-05 12:01:00,56.8,51.8,30.04,South,187,9.0,12.0,83,0.00,,,0.00,meteohub,2013-06-05 19:01:00,
2013-06-05 12:07:00,57.4,52.3,30.04,South,187,7.0,12.0,83,0.00,,,0.00,meteohub,2013-06-05 19:07:00,
2013-06-05 12:12:00,57.7,52.0,30.04,South,172,8.0,12.0,81,0.00,,,0.00,meteohub,2013-06-05 19:12:00,
2013-06-05 12:17:00,57.7,52.0,30.04,South,169,7.0,12.0,81,0.00,,,0.00,meteohub,2013-06-05 19:17:00,
2013-06-05 12:22:00,57.7,52.3,30.04,South,183,3.0,12.0,82,0.00,,,0.00,meteohub,2013-06-05 19:22:00,
2013-06-05 12:27:00,58.3,52.2,30.04,South,181,10.0,13.0,80,0.00,,,0.00,meteohub,2013-06-05 19:27:00,
2013-06-05 12:32:00,58.5,51.6,30.04,South,180,4.0,13.0,78,0.00,,,0.00,meteohub,2013-06-05 19:32:00,
2013-06-05 12:37:00,58.8,52.3,30.04,SW,214,6.0,13.0,79,0.00,,,0.00,meteohub,2013-06-05 19:37:00,
2013-06-05 12:43:00,58.5,52.3,30.03,SSE,166,8.0,13.0,80,0.00,,,0.00,meteohub,2013-06-05 19:43:00,
2013-06-05 12:48:00,58.6,52.2,30.03,SW,228,8.0,13.0,79,0.00,,,0.00,meteohub,2013-06-05 19:48:00,
2013-06-05 12:53:00,58.3,52.2,30.03,South,190,8.0,12.0,80,0.00,,,0.00,meteohub,2013-06-05 19:53:00,
2013-06-05 12:58:00,58.5,52.0,30.03,SW,217,12.0,14.0,79,0.00,,,0.00,meteohub,2013-06-05 19:58:00,
2013-06-05 13:03:00,58.5,52.3,30.03,WSW,238,8.0,14.0,80,0.00,,,0.00,meteohub,2013-06-05 20:03:00,
2013-06-05 13:08:00,58.5,51.6,30.03,SW,226,4.0,14.0,78,0.00,,,0.00,meteohub,2013-06-05 20:08:00,
2013-06-05 13:14:00,59.2,53.1,30.03,SW,214,7.0,12.0,80,0.00,,,0.00,meteohub,2013-06-05 20:14:00,
2013-06-05 13:19:00,59.4,52.9,30.03,South,175,7.0,12.0,79,0.00,,,0.00,meteohub,2013-06-05 20:19:00,
2013-06-05 13:24:00,59.2,52.7,30.03,South,181,10.0,11.0,79,0.00,,,0.00,meteohub,2013-06-05 20:24:00,
2013-06-05 13:29:00,59.0,52.5,30.03,South,172,6.0,11.0,79,0.00,,,0.00,meteohub,2013-06-05 20:29:00,
2013-06-05 13:34:00,59.4,53.2,30.02,South,170,10.0,14.0,80,0.00,,,0.00,meteohub,2013-06-05 20:34:00,
2013-06-05 13:39:00,59.4,53.2,30.02,South,177,12.0,14.0,80,0.00,,,0.00,meteohub,2013-06-05 20:39:00,
2013-06-05 13:44:00,58.6,52.5,30.02,SSW,206,8.0,15.0,80,0.00,,,0.00,meteohub,2013-06-05 20:44:00,
2013-06-05 13:49:00,58.6,52.9,30.02,SSW,209,6.0,19.0,81,0.00,,,0.00,meteohub,2013-06-05 20:49:00,
2013-06-05 13:55:00,59.2,52.7,30.02,SSW,212,9.0,19.0,79,0.00,,,0.00,meteohub,2013-06-05 20:55:00,
2013-06-05 14:00:00,59.5,53.1,30.01,SSW,210,14.0,14.0,79,0.00,,,0.00,meteohub,2013-06-05 21:00:00,
2013-06-05 14:05:00,59.4,52.9,30.01,South,189,13.0,15.0,79,0.00,,,0.00,meteohub,2013-06-05 21:05:00,
2013-06-05 14:10:00,59.5,53.1,30.01,SSW,195,7.0,15.0,79,0.00,,,0.00,meteohub,2013-06-05 21:10:00,
2013-06-05 14:15:00,60.1,53.6,30.01,SSW,200,10.0,14.0,79,0.00,,,0.00,meteohub,2013-06-05 21:15:00,
2013-06-05 14:20:00,59.9,53.1,30.01,SSW,204,13.0,15.0,78,0.00,,,0.00,meteohub,2013-06-05 21:20:00,
2013-06-05 14:25:00,59.2,53.1,30.01,SSW,210,15.0,16.0,80,0.00,,,0.00,meteohub,2013-06-05 21:25:00,
2013-06-05 14:30:00,59.2,52.7,30.01,SSW,210,6.0,17.0,79,0.00,,,0.00,meteohub,2013-06-05 21:30:00,
2013-06-05 14:36:00,59.5,53.1,30.01,SW,214,4.0,17.0,79,0.00,,,0.00,meteohub,2013-06-05 21:36:00,
2013-06-05 14:41:00,59.4,52.5,30.01,SSW,195,11.0,17.0,78,0.00,,,0.00,meteohub,2013-06-05 21:41:00,
2013-06-05 14:46:00,59.0,52.5,30.01,South,179,13.0,16.0,79,0.00,,,0.00,meteohub,2013-06-05 21:46:00,
2013-06-05 14:51:00,59.5,53.1,30.01,SSW,208,9.0,17.0,79,0.00,,,0.00,meteohub,2013-06-05 21:51:00,
2013-06-05 14:56:00,59.4,52.5,30.01,South,175,12.0,17.0,78,0.00,,,0.00,meteohub,2013-06-05 21:56:00,
2013-06-05 15:02:00,58.8,52.7,30.01,South,181,11.0,17.0,80,0.00,,,0.00,meteohub,2013-06-05 22:02:00,
2013-06-05 15:07:00,58.6,52.9,30.01,South,173,5.0,16.0,81,0.00,,,0.00,meteohub,2013-06-05 22:07:00,
2013-06-05 15:12:00,59.2,52.7,30.00,South,171,7.0,16.0,79,0.00,,,0.00,meteohub,2013-06-05 22:12:00,
2013-06-05 15:17:00,59.4,52.9,30.01,SSW,204,9.0,16.0,79,0.00,,,0.00,meteohub,2013-06-05 22:17:00,
2013-06-05 15:22:00,59.0,52.9,30.00,South,190,9.0,17.0,80,0.00,,,0.00,meteohub,2013-06-05 22:22:00,
2013-06-05 15:27:00,60.1,52.9,30.00,SW,218,8.0,17.0,77,0.00,,,0.00,meteohub,2013-06-05 22:27:00,
2013-06-05 15:32:00,59.7,52.9,30.00,SW,222,10.0,17.0,78,0.00,,,0.00,meteohub,2013-06-05 22:32:00,
2013-06-05 15:37:00,60.3,52.7,30.00,SW,215,10.0,16.0,76,0.00,,,0.00,meteohub,2013-06-05 22:37:00,
2013-06-05 15:42:00,59.7,52.9,30.00,SSW,201,15.0,15.0,78,0.00,,,0.00,meteohub,2013-06-05 22:42:00,
2013-06-05 15:47:00,59.5,52.7,30.00,SW,234,10.0,16.0,78,0.00,,,0.00,meteohub,2013-06-05 22:47:00,
2013-06-05 15:53:00,59.5,52.7,30.00,SSW,208,7.0,16.0,78,0.00,,,0.00,meteohub,2013-06-05 22:53:00,
2013-06-05 15:58:00,59.2,52.7,29.99,SW,228,14.0,16.0,79,0.00,,,0.00,meteohub,2013-06-05 22:58:00,
2013-06-05 16:03:00,59.2,52.7,30.00,SSW,200,9.0,16.0,79,0.00,,,0.00,meteohub,2013-06-05 23:03:00,
2013-06-05 16:08:00,59.7,53.2,29.99,South,173,8.0,16.0,79,0.00,,,0.00,meteohub,2013-06-05 23:08:00,
2013-06-05 16:13:00,59.5,53.1,29.99,South,189,13.0,16.0,79,0.00,,,0.00,meteohub,2013-06-05 23:13:00,
2013-06-05 16:18:00,59.2,52.7,29.99,South,181,13.0,16.0,79,0.00,,,0.00,meteohub,2013-06-05 23:18:00,
2013-06-05 16:23:00,58.6,52.5,29.99,South,185,8.0,17.0,80,0.00,,,0.00,meteohub,2013-06-05 23:23:00,
2013-06-05 16:28:00,59.2,53.1,29.99,SSW,194,12.0,17.0,80,0.00,,,0.00,meteohub,2013-06-05 23:28:00,
2013-06-05 16:34:00,59.0,52.5,29.99,SSW,203,5.0,17.0,79,0.00,,,0.00,meteohub,2013-06-05 23:34:00,
2013-06-05 16:39:00,59.4,52.9,29.99,SW,228,14.0,17.0,79,0.00,,,0.00,meteohub,2013-06-05 23:39:00,
2013-06-05 16:44:00,59.2,52.7,29.99,South,181,13.0,16.0,79,0.00,,,0.00,meteohub,2013-06-05 23:44:00,
2013-06-05 16:49:00,59.4,52.9,29.99,South,174,11.0,16.0,79,0.00,,,0.00,meteohub,2013-06-05 23:49:00,
2013-06-05 16:54:00,58.8,52.7,29.99,SSW,210,10.0,16.0,80,0.00,,,0.00,meteohub,2013-06-05 23:54:00,
2013-06-05 16:59:00,58.6,52.5,29.99,South,173,10.0,17.0,80,0.00,,,0.00,meteohub,2013-06-05 23:59:00,
2013-06-05 17:04:00,59.2,53.1,29.99,SSW,201,7.0,17.0,80,0.00,,,0.00,meteohub,2013-06-06 00:04:00,
2013-06-05 17:10:00,58.8,52.7,29.98,South,184,11.0,17.0,80,0.00,,,0.00,meteohub,2013-06-06 00:10:00,
2013-06-05 17:15:00,58.6,52.5,29.98,South,181,11.0,17.0,80,0.00,,,0.00,meteohub,2013-06-06 00:15:00,
2013-06-05 17:20:00,58.3,52.2,29.98,SSW,198,8.0,17.0,80,0.00,,,0.00,meteohub,2013-06-06 00:20:00,
2013-06-05 17:25:00,58.3,52.2,29.98,South,183,5.0,17.0,80,0.00,,,0.00,meteohub,2013-06-06 00:25:00,
2013-06-05 17:30:00,58.3,52.5,29.98,South,175,14.0,17.0,81,0.00,,,0.00,meteohub,2013-06-06 00:30:00,
2013-06-05 17:35:00,57.7,52.0,29.98,South,188,8.0,17.0,81,0.00,,,0.00,meteohub,2013-06-06 00:35:00,
2013-06-05 17:41:00,57.6,52.2,29.98,SSW,210,6.0,17.0,82,0.00,,,0.00,meteohub,2013-06-06 00:41:00,
2013-06-05 17:46:00,57.7,52.3,29.98,SSW,208,9.0,17.0,82,0.00,,,0.00,meteohub,2013-06-06 00:46:00,
2013-06-05 17:51:00,57.9,52.2,29.98,South,178,12.0,17.0,81,0.00,,,0.00,meteohub,2013-06-06 00:51:00,
2013-06-05 17:56:00,58.5,52.3,29.98,South,172,10.0,16.0,80,0.00,,,0.00,meteohub,2013-06-06 00:56:00,
2013-06-05 18:01:00,58.6,52.2,29.98,SW,233,8.0,15.0,79,0.00,,,0.00,meteohub,2013-06-06 01:01:00,
2013-06-05 18:06:00,58.6,51.8,29.98,SW,222,8.0,15.0,78,0.00,,,0.00,meteohub,2013-06-06 01:06:00,
2013-06-05 18:11:00,58.3,52.2,29.98,SSW,212,7.0,15.0,80,0.00,,,0.00,meteohub,2013-06-06 01:11:00,
2013-06-05 18:16:00,57.7,51.6,29.98,SW,231,12.0,15.0,80,0.00,,,0.00,meteohub,2013-06-06 01:16:00,
2013-06-05 18:21:00,57.7,52.3,29.98,SSW,208,10.0,15.0,82,0.00,,,0.00,meteohub,2013-06-06 01:21:00,
2013-06-05 18:27:00,57.4,51.6,29.98,WSW,243,11.0,15.0,81,0.00,,,0.00,meteohub,2013-06-06 01:27:00,
2013-06-05 18:32:00,57.2,51.8,29.98,SW,233,13.0,17.0,82,0.00,,,0.00,meteohub,2013-06-06 01:32:00,
2013-06-05 18:37:00,57.0,51.6,29.98,WSW,245,12.0,17.0,82,0.00,,,0.00,meteohub,2013-06-06 01:37:00,
2013-06-05 18:43:00,56.8,51.4,29.98,SW,235,11.0,17.0,82,0.00,,,0.00,meteohub,2013-06-06 01:43:00,
2013-06-05 18:48:00,56.8,51.8,29.98,SSW,206,7.0,17.0,83,0.00,,,0.00,meteohub,2013-06-06 01:48:00,
2013-06-05 18:53:00,56.5,51.4,29.98,SW,236,14.0,18.0,83,0.00,,,0.00,meteohub,2013-06-06 01:53:00,
2013-06-05 18:58:00,56.3,51.4,29.98,WSW,243,10.0,18.0,84,0.00,,,0.00,meteohub,2013-06-06 01:58:00,
2013-06-05 19:03:00,56.5,51.4,29.98,WSW,237,13.0,18.0,83,0.00,,,0.00,meteohub,2013-06-06 02:03:00,
2013-06-05 19:08:00,56.1,51.4,29.98,WSW,244,9.0,16.0,84,0.00,,,0.00,meteohub,2013-06-06 02:08:00,
2013-06-05 19:13:00,56.1,51.4,29.98,SW,235,11.0,15.0,84,0.00,,,0.00,meteohub,2013-06-06 02:13:00,
2013-06-05 19:18:00,55.9,51.3,29.98,SW,217,13.0,16.0,84,0.00,,,0.00,meteohub,2013-06-06 02:18:00,
2013-06-05 19:23:00,55.9,51.4,29.98,SSW,201,6.0,16.0,85,0.00,,,0.00,meteohub,2013-06-06 02:23:00,
2013-06-05 19:28:00,56.1,51.4,29.98,SW,220,8.0,16.0,84,0.00,,,0.00,meteohub,2013-06-06 02:28:00,
2013-06-05 19:33:00,55.9,51.4,29.99,SSW,205,8.0,16.0,85,0.00,,,0.00,meteohub,2013-06-06 02:33:00,
2013-06-05 19:38:00,55.8,51.3,29.99,SW,233,8.0,13.0,85,0.00,,,0.00,meteohub,2013-06-06 02:38:00,
2013-06-05 19:43:00,55.8,51.6,29.99,SSW,196,7.0,11.0,86,0.00,,,0.00,meteohub,2013-06-06 02:43:00,
2013-06-05 19:49:00,55.6,51.4,29.99,SSW,204,2.0,11.0,86,0.00,,,0.00,meteohub,2013-06-06 02:49:00,
2013-06-05 19:54:00,55.4,51.3,29.99,SW,215,6.0,12.0,86,0.00,,,0.00,meteohub,2013-06-06 02:54:00,
2013-06-05 19:59:00,55.4,51.3,29.99,SSW,204,7.0,12.0,86,0.00,,,0.00,meteohub,2013-06-06 02:59:00,
2013-06-05 20:04:00,55.2,51.4,29.99,SSW,208,6.0,12.0,87,0.00,,,0.00,meteohub,2013-06-06 03:04:00,
2013-06-05 20:09:00,54.9,51.1,29.99,South,191,7.0,10.0,87,0.00,,,0.00,meteohub,2013-06-06 03:09:00,
2013-06-05 20:14:00,54.7,50.9,29.99,SSW,195,7.0,10.0,87,0.00,,,0.00,meteohub,2013-06-06 03:14:00,
2013-06-05 20:19:00,54.5,51.1,29.99,SSW,199,7.0,10.0,88,0.00,,,0.00,meteohub,2013-06-06 03:19:00,
2013-06-05 20:24:00,54.3,50.9,29.99,SSW,208,7.0,11.0,88,0.00,,,0.00,meteohub,2013-06-06 03:24:00,
2013-06-05 20:29:00,54.1,50.7,29.99,South,187,5.0,11.0,88,0.00,,,0.00,meteohub,2013-06-06 03:29:00,
2013-06-05 20:35:00,54.0,50.5,29.99,SSW,210,5.0,11.0,88,0.00,,,0.00,meteohub,2013-06-06 03:35:00,
2013-06-05 20:40:00,54.0,50.5,29.99,SSW,211,6.0,10.0,88,0.00,,,0.00,meteohub,2013-06-06 03:40:00,
2013-06-05 20:45:00,53.8,50.5,29.99,SSW,193,6.0,11.0,89,0.00,,,0.00,meteohub,2013-06-06 03:45:00,
2013-06-05 20:50:00,53.6,50.4,30.00,SSW,196,8.0,11.0,89,0.00,,,0.00,meteohub,2013-06-06 03:50:00,
2013-06-05 20:55:00,53.4,50.2,30.00,SSW,210,7.0,11.0,89,0.00,,,0.00,meteohub,2013-06-06 03:55:00,
2013-06-05 21:00:00,53.2,50.0,30.00,SW,217,11.0,11.0,89,0.00,,,0.00,meteohub,2013-06-06 04:00:00,
2013-06-05 21:01:00,53.2,50.0,30.00,SW,215,8.0,11.0,89,0.00,,,0.00,meteohub,2013-06-06 04:01:00,
2013-06-05 21:02:00,53.2,50.0,30.00,SSW,210,9.0,11.0,89,0.00,,,0.00,meteohub,2013-06-06 04:02:00,
2013-06-05 21:03:00,53.1,49.8,30.00,SSW,195,7.0,11.0,89,0.00,,,0.00,meteohub,2013-06-06 04:03:00,
2013-06-05 21:08:00,53.2,50.4,30.00,SSW,210,7.0,11.0,90,0.00,,,0.00,meteohub,2013-06-06 04:08:00,
2013-06-05 21:13:00,53.2,50.0,30.00,SW,228,8.0,11.0,89,0.00,,,0.00,meteohub,2013-06-06 04:13:00,
2013-06-05 21:18:00,53.1,49.8,30.00,SW,216,10.0,11.0,89,0.00,,,0.00,meteohub,2013-06-06 04:18:00,
2013-06-05 21:23:00,53.1,50.2,30.00,SSW,204,7.0,9.0,90,0.00,,,0.00,meteohub,2013-06-06 04:23:00,
2013-06-05 21:28:00,53.1,50.2,30.01,SW,233,7.0,11.0,90,0.00,,,0.00,meteohub,2013-06-06 04:28:00,
2013-06-05 21:33:00,53.1,50.2,30.01,SW,216,6.0,11.0,90,0.00,,,0.00,meteohub,2013-06-06 04:33:00,
2013-06-05 21:38:00,52.9,50.0,30.01,SSW,211,7.0,11.0,90,0.00,,,0.00,meteohub,2013-06-06 04:38:00,
2013-06-05 21:44:00,52.7,49.8,30.01,SSW,198,7.0,12.0,90,0.00,,,0.00,meteohub,2013-06-06 04:44:00,
2013-06-05 21:49:00,52.7,49.8,30.01,SW,222,4.0,12.0,90,0.00,,,0.00,meteohub,2013-06-06 04:49:00,
2013-06-05 21:54:00,52.7,49.8,30.01,SSW,199,6.0,14.0,90,0.00,,,0.00,meteohub,2013-06-06 04:54:00,
2013-06-05 21:59:00,52.7,49.8,30.01,SSW,210,7.0,14.0,90,0.00,,,0.00,meteohub,2013-06-06 04:59:00,
2013-06-05 22:04:00,52.7,49.8,30.01,SSW,195,11.0,11.0,90,0.00,,,0.00,meteohub,2013-06-06 05:04:00,
2013-06-05 22:09:00,52.9,50.4,30.01,SSW,205,7.0,10.0,91,0.00,,,0.00,meteohub,2013-06-06 05:09:00,
2013-06-05 22:14:00,52.9,50.0,30.01,SSW,207,4.0,11.0,90,0.00,,,0.00,meteohub,2013-06-06 05:14:00,
2013-06-05 22:19:00,52.9,50.0,30.01,SSW,207,7.0,11.0,90,0.00,,,0.00,meteohub,2013-06-06 05:19:00,
2013-06-05 22:24:00,52.9,50.0,30.01,SSW,212,6.0,11.0,90,0.00,,,0.00,meteohub,2013-06-06 05:24:00,
2013-06-05 22:29:00,52.9,50.0,30.01,South,185,7.0,11.0,90,0.00,,,0.00,meteohub,2013-06-06 05:29:00,
2013-06-05 22:34:00,52.7,49.8,30.01,South,189,7.0,11.0,90,0.00,,,0.00,meteohub,2013-06-06 05:34:00,
2013-06-05 22:40:00,52.7,49.8,30.01,South,191,5.0,10.0,90,0.00,,,0.00,meteohub,2013-06-06 05:40:00,
2013-06-05 22:45:00,52.7,49.8,30.01,South,189,9.0,10.0,90,0.00,,,0.00,meteohub,2013-06-06 05:45:00,
2013-06-05 22:50:00,52.7,49.8,30.01,SSW,193,5.0,10.0,90,0.00,,,0.00,meteohub,2013-06-06 05:50:00,
2013-06-05 22:55:00,52.5,50.0,30.01,SSW,213,3.0,10.0,91,0.00,,,0.00,meteohub,2013-06-06 05:55:00,
2013-06-05 23:00:00,52.5,50.0,30.01,SW,235,5.0,11.0,91,0.00,,,0.00,meteohub,2013-06-06 06:00:00,
2013-06-05 23:05:00,52.5,50.0,30.01,SSW,197,4.0,11.0,91,0.00,,,0.00,meteohub,2013-06-06 06:05:00,
2013-06-05 23:10:00,52.5,49.6,30.01,SW,231,7.0,11.0,90,0.00,,,0.00,meteohub,2013-06-06 06:10:00,
2013-06-05 23:16:00,52.5,50.0,30.01,SSW,206,6.0,11.0,91,0.00,,,0.00,meteohub,2013-06-06 06:16:00,
2013-06-05 23:21:00,52.5,49.6,30.01,South,187,7.0,10.0,90,0.00,,,0.00,meteohub,2013-06-06 06:21:00,
2013-06-05 23:26:00,52.5,49.6,30.01,South,180,4.0,10.0,90,0.00,,,0.00,meteohub,2013-06-06 06:26:00,
2013-06-05 23:31:00,52.7,50.2,30.01,SSW,204,11.0,11.0,91,0.00,,,0.00,meteohub,2013-06-06 06:31:00,
2013-06-05 23:36:00,52.7,50.2,30.01,SSW,210,6.0,11.0,91,0.00,,,0.00,meteohub,2013-06-06 06:36:00,
2013-06-05 23:41:00,52.7,50.2,30.01,SW,218,9.0,11.0,91,0.00,,,0.00,meteohub,2013-06-06 06:41:00,
2013-06-05 23:46:00,52.5,50.0,30.01,SSW,208,7.0,11.0,91,0.00,,,0.00,meteohub,2013-06-06 06:46:00,
2013-06-05 23:51:00,52.7,50.2,30.01,SW,226,6.0,11.0,91,0.00,,,0.00,meteohub,2013-06-06 06:51:00,
2013-06-05 23:56:00,52.9,50.4,30.01,SW,226,5.0,11.0,91,0.00,,,0.00,meteohub,2013-06-06 06:56:00,